CCSDS_OMM_VERS = 2.0 CREATION_DATE = ORIGINATOR = OBJECT_NAME = SAR-LUPE 2 OBJECT_ID = 2007-030A CENTER_NAME = EARTH REF_FRAME = TEME TIME_SYSTEM = UTC MEAN_ELEMENT_THEORY = SGP/SGP4 EPOCH = 2026-09-12T06:58:54.400224 MEAN_MOTION = 15.62030103 ECCENTRICITY = .00042885 INCLINATION = 98.1095 RA_OF_ASC_NODE = 11.4082 ARG_OF_PERICENTER = 170.9819 MEAN_ANOMALY = 189.1515 EPHEMERIS_TYPE = 0 CLASSIFICATION_TYPE = U NORAD_CAT_ID = 31797 ELEMENT_SET_NO = 999 REV_AT_EPOCH = 7048 BSTAR = .54948E-3 MEAN_MOTION_DOT = .48070E-3 MEAN_MOTION_DDOT = 0 CCSDS_OMM_VERS = 2.0 CREATION_DATE = ORIGINATOR = OBJECT_NAME = SAPPHIRE OBJECT_ID = 2013-009C CENTER_NAME = EARTH REF_FRAME = TEME TIME_SYSTEM = UTC MEAN_ELEMENT_THEORY = SGP/SGP4 EPOCH = 2026-09-12T07:19:01.864416 MEAN_MOTION = 14.35259542 ECCENTRICITY = .0011064 INCLINATION = 98.4311 RA_OF_ASC_NODE = 72.7222 ARG_OF_PERICENTER = 355.952 MEAN_ANOMALY = 4.1575 EPHEMERIS_TYPE = 0 CLASSIFICATION_TYPE = U NORAD_CAT_ID = 39088 ELEMENT_SET_NO = 999 REV_AT_EPOCH = 70907 BSTAR = .29822E-4 MEAN_MOTION_DOT = .42000E-6 MEAN_MOTION_DDOT = 0 CCSDS_OMM_VERS = 2.0 CREATION_DATE = ORIGINATOR = OBJECT_NAME = PRAETORIAN SDA_602 OBJECT_ID = 2025-203A CENTER_NAME = EARTH REF_FRAME = TEME TIME_SYSTEM = UTC MEAN_ELEMENT_THEORY = SGP/SGP4 EPOCH = 2026-09-12T03:25:00.347232 MEAN_MOTION = 13.83892634 ECCENTRICITY = .00052916 INCLINATION = 81.3007 RA_OF_ASC_NODE = 290.282 ARG_OF_PERICENTER = 329.8477 MEAN_ANOMALY = 30.2374 EPHEMERIS_TYPE = 0 CLASSIFICATION_TYPE = U NORAD_CAT_ID = 65565 ELEMENT_SET_NO = 999 REV_AT_EPOCH = 5072 BSTAR = .43781E-4 MEAN_MOTION_DOT = .60000E-6 MEAN_MOTION_DDOT = 0 CCSDS_OMM_VERS = 2.0 CREATION_DATE = ORIGINATOR = OBJECT_NAME = PRAETORIAN SDA_603 OBJECT_ID = 2025-203B CENTER_NAME = EARTH REF_FRAME = TEME TIME_SYSTEM = UTC MEAN_ELEMENT_THEORY = SGP/SGP4 EPOCH = 2026-09-12T02:17:07.744128 MEAN_MOTION = 13.83965879 ECCENTRICITY = .00088406 INCLINATION = 81.3015 RA_OF_ASC_NODE = 290.2441 ARG_OF_PERICENTER = 321.9044 MEAN_ANOMALY = 38.1487 EPHEMERIS_TYPE = 0 CLASSIFICATION_TYPE = U NORAD_CAT_ID = 65566 ELEMENT_SET_NO = 999 REV_AT_EPOCH = 5072 BSTAR = .18192E-3 MEAN_MOTION_DOT = .21400E-5 MEAN_MOTION_DDOT = 0 CCSDS_OMM_VERS = 2.0 CREATION_DATE = ORIGINATOR = OBJECT_NAME = PRAETORIAN SDA_604 OBJECT_ID = 2025-203C CENTER_NAME = EARTH REF_FRAME = TEME TIME_SYSTEM = UTC MEAN_ELEMENT_THEORY = SGP/SGP4 EPOCH = 2026-09-12T02:22:50.877408 MEAN_MOTION = 13.83056095 ECCENTRICITY = .00049206 INCLINATION = 81.3031 RA_OF_ASC_NODE = 290.7904 ARG_OF_PERICENTER = 336.1484 MEAN_ANOMALY = 23.9443 EPHEMERIS_TYPE = 0 CLASSIFICATION_TYPE = U NORAD_CAT_ID = 65567 ELEMENT_SET_NO = 999 REV_AT_EPOCH = 5069 BSTAR = .37249E-4 MEAN_MOTION_DOT = .53000E-6 MEAN_MOTION_DDOT = 0 CCSDS_OMM_VERS = 2.0 CREATION_DATE = ORIGINATOR = OBJECT_NAME = PRAETORIAN SDA_605 OBJECT_ID = 2025-203D CENTER_NAME = EARTH REF_FRAME = TEME TIME_SYSTEM = UTC MEAN_ELEMENT_THEORY = SGP/SGP4 EPOCH = 2026-09-12T03:00:35.101728 MEAN_MOTION = 13.83133611 ECCENTRICITY = .00075042 INCLINATION = 81.2996 RA_OF_ASC_NODE = 290.3724 ARG_OF_PERICENTER = 323.0817 MEAN_ANOMALY = 36.9822 EPHEMERIS_TYPE = 0 CLASSIFICATION_TYPE = U NORAD_CAT_ID = 65568 ELEMENT_SET_NO = 999 REV_AT_EPOCH = 5071 BSTAR = .38013E-4 MEAN_MOTION_DOT = .53000E-6 MEAN_MOTION_DDOT = 0 CCSDS_OMM_VERS = 2.0 CREATION_DATE = ORIGINATOR = OBJECT_NAME = PRAETORIAN SDA_606 OBJECT_ID = 2025-203E CENTER_NAME = EARTH REF_FRAME = TEME TIME_SYSTEM = UTC MEAN_ELEMENT_THEORY = SGP/SGP4 EPOCH = 2026-09-12T02:38:21.508224 MEAN_MOTION = 13.83210914 ECCENTRICITY = .00053316 INCLINATION = 81.3032 RA_OF_ASC_NODE = 290.6461 ARG_OF_PERICENTER = 327.8704 MEAN_ANOMALY = 32.2127 EPHEMERIS_TYPE = 0 CLASSIFICATION_TYPE = U NORAD_CAT_ID = 65569 ELEMENT_SET_NO = 999 REV_AT_EPOCH = 5070 BSTAR = .42872E-4 MEAN_MOTION_DOT = .59000E-6 MEAN_MOTION_DDOT = 0 CCSDS_OMM_VERS = 2.0 CREATION_DATE = ORIGINATOR = OBJECT_NAME = PRAETORIAN SDA_607 OBJECT_ID = 2025-203F CENTER_NAME = EARTH REF_FRAME = TEME TIME_SYSTEM = UTC MEAN_ELEMENT_THEORY = SGP/SGP4 EPOCH = 2026-09-12T03:34:29.122752 MEAN_MOTION = 13.83763306 ECCENTRICITY = .00080779 INCLINATION = 81.3013 RA_OF_ASC_NODE = 290.1689 ARG_OF_PERICENTER = 322.0234 MEAN_ANOMALY = 38.0351 EPHEMERIS_TYPE = 0 CLASSIFICATION_TYPE = U NORAD_CAT_ID = 65570 ELEMENT_SET_NO = 999 REV_AT_EPOCH = 5073 BSTAR = .17535E-3 MEAN_MOTION_DOT = .20600E-5 MEAN_MOTION_DDOT = 0 CCSDS_OMM_VERS = 2.0 CREATION_DATE = ORIGINATOR = OBJECT_NAME = PRAETORIAN SDA_608 OBJECT_ID = 2025-203G CENTER_NAME = EARTH REF_FRAME = TEME TIME_SYSTEM = UTC MEAN_ELEMENT_THEORY = SGP/SGP4 EPOCH = 2026-09-12T03:05:35.584512 MEAN_MOTION = 13.83824264 ECCENTRICITY = .00053553 INCLINATION = 81.2983 RA_OF_ASC_NODE = 290.3259 ARG_OF_PERICENTER = 333.5519 MEAN_ANOMALY = 26.5363 EPHEMERIS_TYPE = 0 CLASSIFICATION_TYPE = U NORAD_CAT_ID = 65571 ELEMENT_SET_NO = 999 REV_AT_EPOCH = 5071 BSTAR = .41278E-4 MEAN_MOTION_DOT = .58000E-6 MEAN_MOTION_DDOT = 0 CCSDS_OMM_VERS = 2.0 CREATION_DATE = ORIGINATOR = OBJECT_NAME = PRAETORIAN SDA_609 OBJECT_ID = 2025-203H CENTER_NAME = EARTH REF_FRAME = TEME TIME_SYSTEM = UTC MEAN_ELEMENT_THEORY = SGP/SGP4 EPOCH = 2026-09-12T02:37:14.405664 MEAN_MOTION = 13.84216384 ECCENTRICITY = .00059961 INCLINATION = 81.3023 RA_OF_ASC_NODE = 290.3123 ARG_OF_PERICENTER = 324.9158 MEAN_ANOMALY = 35.1603 EPHEMERIS_TYPE = 0 CLASSIFICATION_TYPE = U NORAD_CAT_ID = 65572 ELEMENT_SET_NO = 999 REV_AT_EPOCH = 5072 BSTAR = .15302E-3 MEAN_MOTION_DOT = .18200E-5 MEAN_MOTION_DDOT = 0 CCSDS_OMM_VERS = 2.0 CREATION_DATE = ORIGINATOR = OBJECT_NAME = PRAETORIAN SDA_610 OBJECT_ID = 2025-203J CENTER_NAME = EARTH REF_FRAME = TEME TIME_SYSTEM = UTC MEAN_ELEMENT_THEORY = SGP/SGP4 EPOCH = 2026-09-12T02:57:20.525472 MEAN_MOTION = 13.8353359 ECCENTRICITY = .0006074 INCLINATION = 81.2987 RA_OF_ASC_NODE = 290.3225 ARG_OF_PERICENTER = 331.2157 MEAN_ANOMALY = 28.8664 EPHEMERIS_TYPE = 0 CLASSIFICATION_TYPE = U NORAD_CAT_ID = 65573 ELEMENT_SET_NO = 999 REV_AT_EPOCH = 5071 BSTAR = .41856E-4 MEAN_MOTION_DOT = .58000E-6 MEAN_MOTION_DDOT = 0 CCSDS_OMM_VERS = 2.0 CREATION_DATE = ORIGINATOR = OBJECT_NAME = PRAETORIAN SDA_611 OBJECT_ID = 2025-203K CENTER_NAME = EARTH REF_FRAME = TEME TIME_SYSTEM = UTC MEAN_ELEMENT_THEORY = SGP/SGP4 EPOCH = 2026-09-12T03:23:36.127968 MEAN_MOTION = 13.83315138 ECCENTRICITY = .00049816 INCLINATION = 81.2981 RA_OF_ASC_NODE = 290.5071 ARG_OF_PERICENTER = 340.1054 MEAN_ANOMALY = 19.9907 EPHEMERIS_TYPE = 0 CLASSIFICATION_TYPE = U NORAD_CAT_ID = 65574 ELEMENT_SET_NO = 999 REV_AT_EPOCH = 5070 BSTAR = .24061E-3 MEAN_MOTION_DOT = .27600E-5 MEAN_MOTION_DDOT = 0 CCSDS_OMM_VERS = 2.0 CREATION_DATE = ORIGINATOR = OBJECT_NAME = PRAETORIAN SDA_612 OBJECT_ID = 2025-203L CENTER_NAME = EARTH REF_FRAME = TEME TIME_SYSTEM = UTC MEAN_ELEMENT_THEORY = SGP/SGP4 EPOCH = 2026-09-12T02:16:24.980448 MEAN_MOTION = 13.8503895 ECCENTRICITY = .00084517 INCLINATION = 81.3007 RA_OF_ASC_NODE = 289.9221 ARG_OF_PERICENTER = 321.8824 MEAN_ANOMALY = 38.1734 EPHEMERIS_TYPE = 0 CLASSIFICATION_TYPE = U NORAD_CAT_ID = 65575 ELEMENT_SET_NO = 999 REV_AT_EPOCH = 5074 BSTAR = .13827E-3 MEAN_MOTION_DOT = .16800E-5 MEAN_MOTION_DDOT = 0 CCSDS_OMM_VERS = 2.0 CREATION_DATE = ORIGINATOR = OBJECT_NAME = PRAETORIAN SDA_613 OBJECT_ID = 2025-203M CENTER_NAME = EARTH REF_FRAME = TEME TIME_SYSTEM = UTC MEAN_ELEMENT_THEORY = SGP/SGP4 EPOCH = 2026-09-12T02:38:13.184448 MEAN_MOTION = 13.82772234 ECCENTRICITY = .00049443 INCLINATION = 81.2977 RA_OF_ASC_NODE = 290.6003 ARG_OF_PERICENTER = 327.3793 MEAN_ANOMALY = 32.7057 EPHEMERIS_TYPE = 0 CLASSIFICATION_TYPE = U NORAD_CAT_ID = 65576 ELEMENT_SET_NO = 999 REV_AT_EPOCH = 5069 BSTAR = .42748E-4 MEAN_MOTION_DOT = .58000E-6 MEAN_MOTION_DDOT = 0 CCSDS_OMM_VERS = 2.0 CREATION_DATE = ORIGINATOR = OBJECT_NAME = PRAETORIAN SDA_614 OBJECT_ID = 2025-203N CENTER_NAME = EARTH REF_FRAME = TEME TIME_SYSTEM = UTC MEAN_ELEMENT_THEORY = SGP/SGP4 EPOCH = 2026-09-12T02:24:22.706784 MEAN_MOTION = 13.84783834 ECCENTRICITY = .00063414 INCLINATION = 81.2991 RA_OF_ASC_NODE = 290.0168 ARG_OF_PERICENTER = 321.9939 MEAN_ANOMALY = 38.077 EPHEMERIS_TYPE = 0 CLASSIFICATION_TYPE = U NORAD_CAT_ID = 65577 ELEMENT_SET_NO = 999 REV_AT_EPOCH = 5074 BSTAR = .24407E-4 MEAN_MOTION_DOT = .39000E-6 MEAN_MOTION_DDOT = 0 CCSDS_OMM_VERS = 2.0 CREATION_DATE = ORIGINATOR = OBJECT_NAME = PRAETORIAN SDA_615 OBJECT_ID = 2025-203P CENTER_NAME = EARTH REF_FRAME = TEME TIME_SYSTEM = UTC MEAN_ELEMENT_THEORY = SGP/SGP4 EPOCH = 2026-09-12T02:21:55.142496 MEAN_MOTION = 13.84442553 ECCENTRICITY = .00082443 INCLINATION = 81.3005 RA_OF_ASC_NODE = 290.0362 ARG_OF_PERICENTER = 321.2534 MEAN_ANOMALY = 38.8031 EPHEMERIS_TYPE = 0 CLASSIFICATION_TYPE = U NORAD_CAT_ID = 65578 ELEMENT_SET_NO = 999 REV_AT_EPOCH = 5073 BSTAR = .15847E-3 MEAN_MOTION_DOT = .18900E-5 MEAN_MOTION_DDOT = 0 CCSDS_OMM_VERS = 2.0 CREATION_DATE = ORIGINATOR = OBJECT_NAME = PRAETORIAN SDA_616 OBJECT_ID = 2025-203Q CENTER_NAME = EARTH REF_FRAME = TEME TIME_SYSTEM = UTC MEAN_ELEMENT_THEORY = SGP/SGP4 EPOCH = 2026-09-12T03:26:07.556928 MEAN_MOTION = 13.83277151 ECCENTRICITY = .0004753 INCLINATION = 81.303 RA_OF_ASC_NODE = 290.708 ARG_OF_PERICENTER = 339.439 MEAN_ANOMALY = 20.6574 EPHEMERIS_TYPE = 0 CLASSIFICATION_TYPE = U NORAD_CAT_ID = 65579 ELEMENT_SET_NO = 999 REV_AT_EPOCH = 5070 BSTAR = .15493E-3 MEAN_MOTION_DOT = .18200E-5 MEAN_MOTION_DDOT = 0 CCSDS_OMM_VERS = 2.0 CREATION_DATE = ORIGINATOR = OBJECT_NAME = PRAETORIAN SDA_617 OBJECT_ID = 2025-203R CENTER_NAME = EARTH REF_FRAME = TEME TIME_SYSTEM = UTC MEAN_ELEMENT_THEORY = SGP/SGP4 EPOCH = 2026-09-12T02:23:43.930464 MEAN_MOTION = 13.83156163 ECCENTRICITY = .00066004 INCLINATION = 81.3015 RA_OF_ASC_NODE = 290.5714 ARG_OF_PERICENTER = 322.6614 MEAN_ANOMALY = 37.4083 EPHEMERIS_TYPE = 0 CLASSIFICATION_TYPE = U NORAD_CAT_ID = 65580 ELEMENT_SET_NO = 999 REV_AT_EPOCH = 5070 BSTAR = .39985E-4 MEAN_MOTION_DOT = .56000E-6 MEAN_MOTION_DDOT = 0 CCSDS_OMM_VERS = 2.0 CREATION_DATE = ORIGINATOR = OBJECT_NAME = PRAETORIAN SDA_618 OBJECT_ID = 2025-203S CENTER_NAME = EARTH REF_FRAME = TEME TIME_SYSTEM = UTC MEAN_ELEMENT_THEORY = SGP/SGP4 EPOCH = 2026-09-12T03:32:00.926016 MEAN_MOTION = 13.84228798 ECCENTRICITY = .00090631 INCLINATION = 81.2998 RA_OF_ASC_NODE = 289.9428 ARG_OF_PERICENTER = 323.9174 MEAN_ANOMALY = 36.137 EPHEMERIS_TYPE = 0 CLASSIFICATION_TYPE = U NORAD_CAT_ID = 65581 ELEMENT_SET_NO = 999 REV_AT_EPOCH = 5074 BSTAR = .19274E-3 MEAN_MOTION_DOT = .22700E-5 MEAN_MOTION_DDOT = 0 CCSDS_OMM_VERS = 2.0 CREATION_DATE = ORIGINATOR = OBJECT_NAME = PRAETORIAN SDA_619 OBJECT_ID = 2025-203T CENTER_NAME = EARTH REF_FRAME = TEME TIME_SYSTEM = UTC MEAN_ELEMENT_THEORY = SGP/SGP4 EPOCH = 2026-09-12T03:24:47.998080 MEAN_MOTION = 13.83731336 ECCENTRICITY = .0007403 INCLINATION = 81.3019 RA_OF_ASC_NODE = 290.3327 ARG_OF_PERICENTER = 322.8303 MEAN_ANOMALY = 37.234 EPHEMERIS_TYPE = 0 CLASSIFICATION_TYPE = U NORAD_CAT_ID = 65582 ELEMENT_SET_NO = 999 REV_AT_EPOCH = 5135 BSTAR = .15365E-3 MEAN_MOTION_DOT = .18200E-5 MEAN_MOTION_DDOT = 0 CCSDS_OMM_VERS = 2.0 CREATION_DATE = ORIGINATOR = OBJECT_NAME = PRAETORIAN SDA_620 OBJECT_ID = 2025-203U CENTER_NAME = EARTH REF_FRAME = TEME TIME_SYSTEM = UTC MEAN_ELEMENT_THEORY = SGP/SGP4 EPOCH = 2026-09-12T03:04:56.593056 MEAN_MOTION = 13.83212107 ECCENTRICITY = .00066534 INCLINATION = 81.301 RA_OF_ASC_NODE = 290.4195 ARG_OF_PERICENTER = 320.3979 MEAN_ANOMALY = 39.669 EPHEMERIS_TYPE = 0 CLASSIFICATION_TYPE = U NORAD_CAT_ID = 65583 ELEMENT_SET_NO = 999 REV_AT_EPOCH = 5071 BSTAR = .17565E-3 MEAN_MOTION_DOT = .20400E-5 MEAN_MOTION_DDOT = 0 CCSDS_OMM_VERS = 2.0 CREATION_DATE = ORIGINATOR = OBJECT_NAME = PRAETORIAN SDA_621 OBJECT_ID = 2025-203V CENTER_NAME = EARTH REF_FRAME = TEME TIME_SYSTEM = UTC MEAN_ELEMENT_THEORY = SGP/SGP4 EPOCH = 2026-09-12T03:24:35.637696 MEAN_MOTION = 13.83808956 ECCENTRICITY = .00064984 INCLINATION = 81.2998 RA_OF_ASC_NODE = 290.246 ARG_OF_PERICENTER = 316.1364 MEAN_ANOMALY = 43.9275 EPHEMERIS_TYPE = 0 CLASSIFICATION_TYPE = U NORAD_CAT_ID = 65584 ELEMENT_SET_NO = 999 REV_AT_EPOCH = 5072 BSTAR = .46105E-4 MEAN_MOTION_DOT = .63000E-6 MEAN_MOTION_DDOT = 0 CCSDS_OMM_VERS = 2.0 CREATION_DATE = ORIGINATOR = OBJECT_NAME = PRAETORIAN SDA_601 OBJECT_ID = 2025-203W CENTER_NAME = EARTH REF_FRAME = TEME TIME_SYSTEM = UTC MEAN_ELEMENT_THEORY = SGP/SGP4 EPOCH = 2026-09-12T03:39:40.542912 MEAN_MOTION = 13.83175191 ECCENTRICITY = .00050144 INCLINATION = 81.3012 RA_OF_ASC_NODE = 290.6333 ARG_OF_PERICENTER = 341.0613 MEAN_ANOMALY = 19.0356 EPHEMERIS_TYPE = 0 CLASSIFICATION_TYPE = U NORAD_CAT_ID = 65585 ELEMENT_SET_NO = 999 REV_AT_EPOCH = 5070 BSTAR = .11948E-3 MEAN_MOTION_DOT = .14300E-5 MEAN_MOTION_DDOT = 0 CCSDS_OMM_VERS = 2.0 CREATION_DATE = ORIGINATOR = OBJECT_NAME = VICTUS HAZE PUMA OBJECT_ID = 2026-142A CENTER_NAME = EARTH REF_FRAME = TEME TIME_SYSTEM = UTC MEAN_ELEMENT_THEORY = SGP/SGP4 EPOCH = 2026-09-12T05:58:23.930112 MEAN_MOTION = 15.21382594 ECCENTRICITY = .00149214 INCLINATION = 97.4526 RA_OF_ASC_NODE = 151.8484 ARG_OF_PERICENTER = 152.7817 MEAN_ANOMALY = 207.4204 EPHEMERIS_TYPE = 0 CLASSIFICATION_TYPE = U NORAD_CAT_ID = 69646 ELEMENT_SET_NO = 999 REV_AT_EPOCH = 1290 BSTAR = .14321E-3 MEAN_MOTION_DOT = .31490E-4 MEAN_MOTION_DDOT = 0